DW6206 Weather Reports


time (UTC)temp
F
wind
direction
speed
knots
gust
knots
rain 1hr
in
rain 24hr
in
rain mn
in
humidity
%
barometer
mb
20260506132313 47 0 0.0 4.3 0.02 1.22 0.94 98 1009.7
20260506125111 48 0 0.0 0.9 0.10 1.20 0.92 98 1009.7
20260506124047 48 45 0.0 0.9 0.00 1.18 0.89 98 1009.6
20260506123051 48 67 0.0 2.6 0.00 1.16 0.88 99 1009.5
20260506122034 48 337 0.0 2.6 0.00 1.16 0.88 98 1009.4
20260506121020 48 337 0.0 2.6 0.00 1.16 0.88 99 1009.5
20260506114850 48 90 0.9 4.3 0.04 1.16 0.88 99 1009.3
20260506113830 48 337 0.0 0.9 0.01 1.15 0.87 99 1009.1
20260506111742 48 337 0.0 2.6 0.01 1.14 0.86 99 1009.1
20260506110807 47 45 0.0 2.6 0.03 1.14 0.86 99 1009.0
20260506105822 47 337 0.9 4.3 0.05 1.13 0.85 99 1008.8
20260506104836 47 337 2.6 4.3 0.06 1.13 0.85 99 1009.1
20260506103836 47 337 0.9 2.6 0.03 1.12 0.82 99 1009.0
20260506102828 47 337 0.0 2.6 0.03 1.11 0.81 99 1009.0
20260506100651 48 337 0.0 5.2 0.06 1.08 0.80 99 1008.7
20260506095710 48 315 0.0 4.3 0.07 1.07 0.77 99 1008.7
20260506094702 49 337 0.0 5.2 0.04 1.06 0.76 99 1008.3
20260506093654 49 337 0.9 5.2 0.04 1.05 0.75 99 1008.3
20260506092638 49 337 0.0 0.9 0.02 1.03 0.74 99 1008.2
20260506091645 49 0 0.0 4.3 0.00 1.02 0.73 99 1008.1
20260506090705 48 337 0.9 4.3 0.00 1.02 0.73 99 1008.2
20260506085720 49 337 0.9 2.6 0.00 1.01 0.73 99 1008.0
20260506084717 49 315 0.0 2.6 0.00 1.01 0.72 99 1008.2
20260506083737 49 337 0.0 0.9 0.00 1.01 0.72 99 1007.9
20260506082719 49 45 0.0 2.6 0.00 1.01 0.72 99 1007.9
20260506081649 49 45 0.9 2.6 0.00 1.01 0.72 99 1007.8
20260506080617 49 315 0.0 2.6 0.00 1.01 0.73 99 1007.9
20260506073525 49 315 0.0 0.9 0.01 1.00 0.70 99 1007.9
20260506072518 49 315 0.0 2.6 0.03 1.00 0.70 99 1007.8
20260506071510 49 337 0.0 0.9 0.01 0.99 0.69 99 1007.9
20260506070528 49 337 0.0 2.6 0.02 0.99 0.69 99 1007.8
20260506060419 49 337 0.0 0.0 0.02 0.95 0.66 99 1007.6
20260506051204 48 22 0.0 2.6 0.01 0.93 0.62 99 1007.4
20260506045037 49 270 0.0 0.9 0.05 0.92 0.61 99 1007.3
20260506044057 49 337 0.0 2.6 0.07 0.90 0.60 99 1007.4
20260506043107 48 315 0.0 2.6 0.10 0.89 0.59 99 1007.4
20260506042125 48 45 0.0 0.9 0.03 0.87 0.56 99 1007.3
20260506041131 49 247 0.0 0.9 0.04 0.86 0.55 99 1007.3
20260506040108 49 315 0.0 2.6 0.09 0.86 0.55 99 1007.2
20260506035043 49 315 0.0 2.6 0.08 0.83 0.53 99 1007.3
20260506034042 49 315 0.0 2.6 0.09 0.82 0.51 99 1007.3
20260506031912 49 292 0.0 4.3 0.07 0.80 0.49 99 1007.6
20260506030937 49 292 0.9 4.3 0.07 0.79 0.48 99 1007.3
20260506024831 49 90 0.9 2.6 0.06 0.75 0.44 99 1007.8
20260506023842 49 292 0.9 2.6 0.04 0.74 0.43 99 1007.7
20260506022823 50 292 0.0 2.6 0.09 0.73 0.42 99 1007.5
20260506021814 50 292 0.0 3.5 0.10 0.72 0.41 99 1007.8
20260506020806 50 337 0.0 3.5 0.06 0.69 0.38 99 1007.7
20260506015819 50 337 0.0 0.9 0.05 0.68 0.37 99 1007.7
20260506014756 50 315 0.9 0.9 0.10 0.67 0.36 99 1007.8
20260506013739 50 315 0.0 0.9 0.11 0.64 0.35 99 1007.7
20260506011557 50 315 0.0 3.5 0.05 0.60 0.29 99 1007.8
20260506010543 50 315 0.9 3.5 0.10 0.59 0.29 99 1007.9
20260506005519 50 315 0.0 3.5 0.12 0.57 0.27 99 1008.0
20260506003308 50 337 0.0 3.5 0.12 0.54 0.23 99 1008.1
20260506001129 50 315 0.0 3.5 0.21 0.49 0.18 99 1008.5
20260506000058 50 315 0.9 3.5 0.06 0.47 0.16 99 1008.5
20260505235057 50 315 0.0 2.6 0.13 0.47 0.16 99 1008.3
20260505234115 50 315 0.0 0.9 0.04 0.44 0.14 99 1008.5
20260505233126 51 292 0.0 0.9 0.05 0.43 0.12 99 1008.6
20260505232055 50 22 0.0 0.9 0.03 0.42 0.11 99 1008.8
20260505231030 51 292 0.0 2.6 0.06 0.41 0.10 99 1008.8
20260505230034 51 315 0.0 2.6 0.05 0.40 0.09 99 1008.9
20260505225022 51 315 0.0 2.6 0.05 0.38 0.00 99 1008.9
20260505222836 51 315 0.0 0.9 0.06 0.36 0.00 98 1009.1
20260505221822 51 315 0.0 0.9 0.07 0.35 0.00 98 1009.2
20260505220754 51 45 0.0 2.6 0.30 0.34 0.00 98 1009.2
20260505215730 51 315 0.0 2.6 0.07 0.29 0.30 98 1009.0
20260505214732 51 315 0.0 0.9 0.13 0.28 0.28 98 1009.1
20260505213712 51 22 0.0 3.5 0.08 0.25 0.25 98 1009.2
20260505211545 51 315 0.0 3.5 0.10 0.22 0.22 98 1009.4
20260505210606 51 315 0.0 0.9 0.40 0.20 0.20 97 1009.4
20260505205626 51 315 0.0 0.9 0.16 0.16 0.15 97 1009.6
20260505204610 51 315 0.0 0.0 0.15 0.14 0.12 97 1009.5
20260505203537 51 315 0.0 0.9 0.17 0.11 0.10 97 1009.3
20260505202602 51 22 0.0 2.6 0.04 0.09 0.08 97 1009.3
20260505201611 51 315 0.0 2.6 0.05 0.08 0.07 96 1009.4
20260505200622 51 315 0.0 2.6 0.05 0.07 0.05 96 1009.5
20260505195607 51 315 0.0 2.6 0.08 0.05 0.04 96 1009.5
20260505194631 51 0 0.0 2.6 0.00 0.04 0.03 95 1009.7
20260505193604 51 315 0.0 3.5 0.00 0.03 0.02 95 1009.6
20260505192626 51 315 0.9 3.5 0.00 0.03 0.02 95 1009.5
20260505191637 51 292 0.0 2.6 0.00 0.03 0.02 94 1009.5
20260505190603 51 315 0.0 0.9 0.00 0.04 0.02 94 1009.5
20260505185550 51 0 0.0 2.6 0.00 0.04 0.02 93 1009.5
20260505184612 51 315 0.0 3.5 0.00 0.04 0.02 93 1009.4
20260505182420 51 337 0.0 2.6 0.00 0.04 0.02 93 1009.5
20260505180304 52 337 0.0 0.9 0.00 0.04 0.02 93 1009.5
20260505175300 52 315 0.0 0.9 0.00 0.04 0.02 92 1009.4
20260505173205 53 67 0.0 2.6 0.00 0.05 0.02 92 1009.8
20260505172131 53 337 0.0 2.6 0.00 0.05 0.02 92 1009.5
20260505171147 52 337 0.9 4.3 0.00 0.07 0.02 92 1009.5
20260505170200 53 22 0.0 4.3 0.00 0.07 0.02 92 1009.8
20260505165212 53 45 0.0 2.6 0.00 0.07 0.02 92 1009.7
20260505163117 53 22 0.0 2.6 0.00 0.08 0.02 92 1009.7
20260505162053 53 0 0.0 0.9 0.00 0.08 0.02 92 1009.5
20260505161110 53 22 0.0 4.3 0.00 0.08 0.02 92 1009.8
20260505160111 53 337 0.0 4.3 0.00 0.08 0.02 92 1009.7
20260505153045 54 292 0.0 3.5 0.00 0.08 0.02 93 1010.0
20260505150950 54 315 0.0 4.3 0.00 0.08 0.02 93 1010.1